Location: Arbon
(43.0005°N, 0.7472°E)
Time: 02:26:40
(UTC+00:00)

Cosmos 1627 Rocket - Pass Details

Date: 07 August 2020
Orbit: 951 x 1003 km, 82.9° (Epoch: 19 September)

Event Time Altitude Azimuth Distance (km) Brightness Sun altitude
Rises 01:44:15 0° 349° (N) 3,640 8.3 -26.3°
Reaches altitude 10° 01:46:45 10° 347° (NNW) 2,694 7.4 -26.1°
Maximum altitude 01:52:51 69° 266° (W) 1,028 4.4 -25.5°
Enters shadow 01:53:43 61° 221° (SW) 1,086 4.4 -25.4°
